User: anonymous   Login
Location: Bowman Observatory
(41.0326°N, 73.6210°W)
Time: 12:26:50
(UTC-04:00)
Language:

Cosmos 2297 - Orbit

View from above orbital plane
View from above orbital plane
View from above satellite
View from above satellite

Ground track
Ground track

The orbit data is extracted from the following two-line orbital elements,

1 23404U 94077A   17262.89807910 -.00000204 +00000-0 -83323-4 0  9991
2 23404 071.0134 094.7185 0016038 354.8629 005.2325 14.13500604177411
Epoch (UTC): 19 September 2017 21:33:14
Eccentricity: 0.0016038
inclination: 71.0134°
perigee height: 836 km
apogee height: 859 km
right ascension of ascending node: 94.7185°
argument of perigee: 354.8629°
revolutions per day: 14.13500604
mean anomaly at epoch: 5.2325°
orbit number at epoch: 17741

The dashed part of the orbit path shows where the satellite is in the earth's shadow,  

DLR